{"data":{"norad_id":65020,"epoch":"2026-09-20T03:16:38.662176Z","epoch_age_seconds":155593,"freshness":"FRESH","line1":"1 65020U 25161F   26263.13655859  .00012598  00000+0  38334-3 0  9997","line2":"2 65020  53.1559 107.2533 0001062  99.4716 260.6407 15.34401290 65262","mean_motion":15.3440129,"eccentricity":0.0001062,"inclination_deg":53.1559,"raan_deg":107.2533,"arg_perigee_deg":99.4716,"mean_anomaly_deg":260.6407,"bstar":0.00038334,"rev_number":6526,"period_min":93.847679181761,"perigee_km":461.97290923161,"apogee_km":463.42590288426,"semimajor_km":6840.8364060579,"source":"CELESTRAK","updated_at":"2026-09-21T09:00:35.492408Z"}}